Year,Month,Day,Hour,Minute,Value (Times are PST for temperature in C)
2018,04,24,00,00,8.20
2018,04,24,00,01,8.20
2018,04,24,00,02,8.10
2018,04,24,00,03,8.10
2018,04,24,00,04,8.10
2018,04,24,00,05,8.10
2018,04,24,00,06,8.00
2018,04,24,00,07,8.00
2018,04,24,00,08,8.00
2018,04,24,00,09,8.00
2018,04,24,00,10,8.00
2018,04,24,00,11,8.00
2018,04,24,00,12,7.90
2018,04,24,00,13,7.90
2018,04,24,00,14,7.90
2018,04,24,00,15,7.90
2018,04,24,00,16,7.90
2018,04,24,00,17,7.90
2018,04,24,00,18,7.80
2018,04,24,00,19,7.80
2018,04,24,00,20,7.80
2018,04,24,00,21,7.80
2018,04,24,00,22,7.80
2018,04,24,00,23,7.70
2018,04,24,00,24,7.70
2018,04,24,00,25,7.70
2018,04,24,00,26,7.70
2018,04,24,00,27,7.60
2018,04,24,00,28,7.60
2018,04,24,00,29,7.60
2018,04,24,00,30,7.60
2018,04,24,00,31,7.60
2018,04,24,00,32,7.50
2018,04,24,00,33,7.50
2018,04,24,00,34,7.50
2018,04,24,00,35,7.50
2018,04,24,00,36,7.40
2018,04,24,00,37,7.40
2018,04,24,00,38,7.40
2018,04,24,00,39,7.40
2018,04,24,00,40,7.40
2018,04,24,00,41,7.40
2018,04,24,00,42,7.40
2018,04,24,00,43,7.40
2018,04,24,00,44,7.40
2018,04,24,00,45,7.40
2018,04,24,00,46,7.40
2018,04,24,00,47,7.40
2018,04,24,00,48,7.40
2018,04,24,00,49,7.40
2018,04,24,00,50,7.40
2018,04,24,00,51,7.40
2018,04,24,00,52,7.40
2018,04,24,00,53,7.40
2018,04,24,00,54,7.40
2018,04,24,00,55,7.40
2018,04,24,00,56,7.40
2018,04,24,00,57,7.40
2018,04,24,00,58,7.40
2018,04,24,00,59,7.40
2018,04,24,01,00,7.40
2018,04,24,01,01,7.40
2018,04,24,01,02,7.40
2018,04,24,01,03,7.40
2018,04,24,01,04,7.40
2018,04,24,01,05,7.40
2018,04,24,01,06,7.40
2018,04,24,01,07,7.40
2018,04,24,01,08,7.40
2018,04,24,01,09,7.50
2018,04,24,01,10,7.50
2018,04,24,01,11,7.50
2018,04,24,01,12,7.50
2018,04,24,01,13,7.50
2018,04,24,01,14,7.50
2018,04,24,01,15,7.40
2018,04,24,01,16,7.40
2018,04,24,01,17,7.40
2018,04,24,01,18,7.40
2018,04,24,01,19,7.40
2018,04,24,01,20,7.30
2018,04,24,01,21,7.30
2018,04,24,01,22,7.30
2018,04,24,01,23,7.30
2018,04,24,01,24,7.30
2018,04,24,01,25,7.30
2018,04,24,01,26,7.20
2018,04,24,01,27,7.20
2018,04,24,01,28,7.20
2018,04,24,01,29,7.20
2018,04,24,01,30,7.20
2018,04,24,01,31,7.20
2018,04,24,01,32,7.20
2018,04,24,01,33,7.20
2018,04,24,01,34,7.30
2018,04,24,01,35,7.30
2018,04,24,01,36,7.30
2018,04,24,01,37,7.30
2018,04,24,01,38,7.30
2018,04,24,01,39,7.30
2018,04,24,01,40,7.30
2018,04,24,01,41,7.30
2018,04,24,01,42,7.30
2018,04,24,01,43,7.30
2018,04,24,01,44,7.40
2018,04,24,01,45,7.40
2018,04,24,01,46,7.40
2018,04,24,01,47,7.40
2018,04,24,01,48,7.50
2018,04,24,01,49,7.60
2018,04,24,01,50,7.70
2018,04,24,01,51,7.80
2018,04,24,01,52,7.90
2018,04,24,01,53,8.10
2018,04,24,01,54,8.30
2018,04,24,01,55,8.50
2018,04,24,01,56,8.70
2018,04,24,01,57,8.90
2018,04,24,01,58,9.10
2018,04,24,01,59,9.20
2018,04,24,02,00,9.40
2018,04,24,02,01,9.50
2018,04,24,02,02,9.70
2018,04,24,02,03,9.80
2018,04,24,02,04,10.00
2018,04,24,02,05,10.10
2018,04,24,02,06,10.20
2018,04,24,02,07,10.30
2018,04,24,02,08,10.30
2018,04,24,02,09,10.40
2018,04,24,02,10,10.60
2018,04,24,02,11,10.80
2018,04,24,02,12,10.90
2018,04,24,02,13,11.00
2018,04,24,02,14,11.10
2018,04,24,02,15,11.10
2018,04,24,02,16,11.10
2018,04,24,02,17,11.10
2018,04,24,02,18,11.00
2018,04,24,02,19,10.90
2018,04,24,02,20,10.80
2018,04,24,02,21,10.70
2018,04,24,02,22,10.60
2018,04,24,02,23,10.50
2018,04,24,02,24,10.40
2018,04,24,02,25,10.30
2018,04,24,02,26,10.20
2018,04,24,02,27,10.20
2018,04,24,02,28,10.10
2018,04,24,02,29,10.10
2018,04,24,02,30,10.00
2018,04,24,02,31,10.00
2018,04,24,02,32,9.90
2018,04,24,02,33,9.90
2018,04,24,02,34,9.90
2018,04,24,02,35,9.80
2018,04,24,02,36,9.80
2018,04,24,02,37,9.90
2018,04,24,02,38,9.90
2018,04,24,02,39,9.90
2018,04,24,02,40,9.90
2018,04,24,02,41,9.80
2018,04,24,02,42,9.80
2018,04,24,02,43,9.80
2018,04,24,02,44,9.70
2018,04,24,02,45,9.70
2018,04,24,02,46,9.70
2018,04,24,02,47,9.70
2018,04,24,02,48,9.70
2018,04,24,02,49,9.70
2018,04,24,02,50,9.80
2018,04,24,02,51,9.80
2018,04,24,02,52,9.80
2018,04,24,02,53,9.80
2018,04,24,02,54,9.80
2018,04,24,02,55,9.90
2018,04,24,02,56,9.90
2018,04,24,02,57,9.90
2018,04,24,02,58,9.90
2018,04,24,02,59,9.80
2018,04,24,03,00,9.80
2018,04,24,03,01,9.90
2018,04,24,03,02,10.00
2018,04,24,03,03,10.10
2018,04,24,03,04,10.30
2018,04,24,03,05,10.30
2018,04,24,03,06,10.40
2018,04,24,03,07,10.50
2018,04,24,03,08,10.50
2018,04,24,03,09,10.50
2018,04,24,03,10,10.50
2018,04,24,03,11,10.40
2018,04,24,03,12,10.40
2018,04,24,03,13,10.30
2018,04,24,03,14,10.30
2018,04,24,03,15,10.30
2018,04,24,03,16,10.30
2018,04,24,03,17,10.30
2018,04,24,03,18,10.30
2018,04,24,03,19,10.30
2018,04,24,03,20,10.20
2018,04,24,03,21,10.20
2018,04,24,03,22,10.20
2018,04,24,03,23,10.10
2018,04,24,03,24,10.10
2018,04,24,03,25,9.90
2018,04,24,03,26,9.70
2018,04,24,03,27,9.60
2018,04,24,03,28,9.40
2018,04,24,03,29,9.20
2018,04,24,03,30,9.10
2018,04,24,03,31,8.90
2018,04,24,03,32,8.80
2018,04,24,03,33,8.70
2018,04,24,03,34,8.60
2018,04,24,03,35,8.50
2018,04,24,03,36,8.40
2018,04,24,03,37,8.30
2018,04,24,03,38,8.20
2018,04,24,03,39,8.10
2018,04,24,03,40,8.00
2018,04,24,03,41,8.00
2018,04,24,03,42,7.90
2018,04,24,03,43,7.90
2018,04,24,03,44,7.80
2018,04,24,03,45,7.80
2018,04,24,03,46,7.70
2018,04,24,03,47,7.70
2018,04,24,03,48,7.70
2018,04,24,03,49,7.60
2018,04,24,03,50,7.60
2018,04,24,03,51,7.60
2018,04,24,03,52,7.60
2018,04,24,03,53,7.70
2018,04,24,03,54,7.80
2018,04,24,03,55,7.90
2018,04,24,03,56,8.10
2018,04,24,03,57,8.30
2018,04,24,03,58,8.50
2018,04,24,03,59,8.80
2018,04,24,04,00,9.00
2018,04,24,04,01,9.10
2018,04,24,04,02,9.20
2018,04,24,04,03,9.20
2018,04,24,04,04,9.20
2018,04,24,04,05,9.20
2018,04,24,04,06,9.20
2018,04,24,04,07,9.20
2018,04,24,04,08,9.20
2018,04,24,04,09,9.30
2018,04,24,04,10,9.40
2018,04,24,04,11,9.50
2018,04,24,04,12,9.60
2018,04,24,04,13,9.70
2018,04,24,04,14,9.80
2018,04,24,04,15,9.90
2018,04,24,04,16,10.00
2018,04,24,04,17,10.00
2018,04,24,04,18,10.00
2018,04,24,04,19,10.10
2018,04,24,04,20,10.10
2018,04,24,04,21,10.10
2018,04,24,04,22,10.10
2018,04,24,04,23,10.10
2018,04,24,04,24,10.10
2018,04,24,04,25,10.10
2018,04,24,04,26,10.10
2018,04,24,04,27,10.10
2018,04,24,04,28,10.10
2018,04,24,04,29,10.10
2018,04,24,04,30,10.10
2018,04,24,04,31,10.20
2018,04,24,04,32,10.20
2018,04,24,04,33,10.30
2018,04,24,04,34,10.30
2018,04,24,04,35,10.30
2018,04,24,04,36,10.30
2018,04,24,04,37,10.30
2018,04,24,04,38,10.30
2018,04,24,04,39,10.30
2018,04,24,04,40,10.30
2018,04,24,04,41,10.30
2018,04,24,04,42,10.40
2018,04,24,04,43,10.40
2018,04,24,04,44,10.50
2018,04,24,04,45,10.50
2018,04,24,04,46,10.60
2018,04,24,04,47,10.60
2018,04,24,04,48,10.50
2018,04,24,04,49,10.60
2018,04,24,04,50,10.60
2018,04,24,04,51,10.60
2018,04,24,04,52,10.60
2018,04,24,04,53,10.60
2018,04,24,04,54,10.60
2018,04,24,04,55,10.50
2018,04,24,04,56,10.50
2018,04,24,04,57,10.50
2018,04,24,04,58,10.50
2018,04,24,04,59,10.50
2018,04,24,05,00,10.60
2018,04,24,05,01,10.60
2018,04,24,05,02,10.60
2018,04,24,05,03,10.50
2018,04,24,05,04,10.50
2018,04,24,05,05,10.50
2018,04,24,05,06,10.60
2018,04,24,05,07,10.60
2018,04,24,05,08,10.50
2018,04,24,05,09,10.50
2018,04,24,05,10,10.40
2018,04,24,05,11,10.40
2018,04,24,05,12,10.40
2018,04,24,05,13,10.40
2018,04,24,05,14,10.40
2018,04,24,05,15,10.40
2018,04,24,05,16,10.40
2018,04,24,05,17,10.40
2018,04,24,05,18,10.40
2018,04,24,05,19,10.50
2018,04,24,05,20,10.60
2018,04,24,05,21,10.60
2018,04,24,05,22,10.70
2018,04,24,05,23,10.80
2018,04,24,05,24,10.80
2018,04,24,05,25,10.90
2018,04,24,05,26,10.90
2018,04,24,05,27,11.00
2018,04,24,05,28,11.00
2018,04,24,05,29,11.00
2018,04,24,05,30,11.00
2018,04,24,05,31,10.90
2018,04,24,05,32,10.90
2018,04,24,05,33,10.80
2018,04,24,05,34,10.80
2018,04,24,05,35,10.80
2018,04,24,05,36,10.80
2018,04,24,05,37,10.80
2018,04,24,05,38,10.70
2018,04,24,05,39,10.70
2018,04,24,05,40,10.70
2018,04,24,05,41,10.70
2018,04,24,05,42,10.70
2018,04,24,05,43,10.60
2018,04,24,05,44,10.60
2018,04,24,05,45,10.60
2018,04,24,05,46,10.60
2018,04,24,05,47,10.60
2018,04,24,05,48,10.60
2018,04,24,05,49,10.60
2018,04,24,05,50,10.50
2018,04,24,05,51,10.50
2018,04,24,05,52,10.60
2018,04,24,05,53,10.70
2018,04,24,05,54,10.80
2018,04,24,05,55,10.80
2018,04,24,05,56,10.90
2018,04,24,05,57,10.90
2018,04,24,05,58,10.90
2018,04,24,05,59,10.90
2018,04,24,06,00,10.90
2018,04,24,06,01,10.90
2018,04,24,06,02,10.90
2018,04,24,06,03,11.00
2018,04,24,06,04,10.90
2018,04,24,06,05,10.90
2018,04,24,06,06,10.90
2018,04,24,06,07,10.90
2018,04,24,06,08,11.00
2018,04,24,06,09,11.00
2018,04,24,06,10,11.10
2018,04,24,06,11,11.00
2018,04,24,06,12,11.00
2018,04,24,06,13,11.00
2018,04,24,06,14,11.00
2018,04,24,06,15,11.10
2018,04,24,06,16,11.10
2018,04,24,06,17,11.10
2018,04,24,06,18,11.10
2018,04,24,06,19,11.10
2018,04,24,06,20,11.10
2018,04,24,06,21,11.10
2018,04,24,06,22,11.10
2018,04,24,06,23,11.10
2018,04,24,06,24,11.10
2018,04,24,06,25,11.00
2018,04,24,06,26,11.00
2018,04,24,06,27,11.00
2018,04,24,06,28,11.00
2018,04,24,06,29,11.00
2018,04,24,06,30,11.00
2018,04,24,06,31,11.00
2018,04,24,06,32,11.00
2018,04,24,06,33,11.00
2018,04,24,06,34,11.00
2018,04,24,06,35,11.10
2018,04,24,06,36,11.10
2018,04,24,06,37,11.10
2018,04,24,06,38,11.10
2018,04,24,06,39,11.20
2018,04,24,06,40,11.20
2018,04,24,06,41,11.30
2018,04,24,06,42,11.30
2018,04,24,06,43,11.30
2018,04,24,06,44,11.40
2018,04,24,06,45,11.40
2018,04,24,06,46,11.40
2018,04,24,06,47,11.40
2018,04,24,06,48,11.40
2018,04,24,06,49,11.40
2018,04,24,06,50,11.30
2018,04,24,06,51,11.30
2018,04,24,06,52,11.30
2018,04,24,06,53,11.30
2018,04,24,06,54,11.30
2018,04,24,06,55,11.30
2018,04,24,06,56,11.30
2018,04,24,06,57,11.30
2018,04,24,06,58,11.30
2018,04,24,06,59,11.30
2018,04,24,07,00,11.30
2018,04,24,07,01,11.30
2018,04,24,07,02,11.30
2018,04,24,07,03,11.30
2018,04,24,07,04,11.30
2018,04,24,07,05,11.30
2018,04,24,07,06,11.30
2018,04,24,07,07,11.30
2018,04,24,07,08,11.40
2018,04,24,07,09,11.40
2018,04,24,07,10,11.40
2018,04,24,07,11,11.50
2018,04,24,07,12,11.50
2018,04,24,07,13,11.60
2018,04,24,07,14,11.60
2018,04,24,07,15,11.70
2018,04,24,07,16,11.70
2018,04,24,07,17,11.80
2018,04,24,07,18,11.80
2018,04,24,07,19,11.80
2018,04,24,07,20,11.90
2018,04,24,07,21,11.90
2018,04,24,07,22,11.90
2018,04,24,07,23,12.00
2018,04,24,07,24,12.00
2018,04,24,07,25,12.10
2018,04,24,07,26,12.10
2018,04,24,07,27,12.10
2018,04,24,07,28,12.20
2018,04,24,07,29,12.20
2018,04,24,07,30,12.30
2018,04,24,07,31,12.30
2018,04,24,07,32,12.40
2018,04,24,07,33,12.40
2018,04,24,07,34,12.50
2018,04,24,07,35,12.50
2018,04,24,07,36,12.60
2018,04,24,07,37,12.60
2018,04,24,07,38,12.70
2018,04,24,07,39,12.70
2018,04,24,07,40,12.80
2018,04,24,07,41,12.80
2018,04,24,07,42,12.90
2018,04,24,07,43,12.90
2018,04,24,07,44,13.00
2018,04,24,07,45,13.00
2018,04,24,07,46,13.10
2018,04,24,07,47,13.20
2018,04,24,07,48,13.20
2018,04,24,07,49,13.20
2018,04,24,07,50,13.20
2018,04,24,07,51,13.30
2018,04,24,07,52,13.30
2018,04,24,07,53,13.30
2018,04,24,07,54,13.40
2018,04,24,07,55,13.40
2018,04,24,07,56,13.40
2018,04,24,07,57,13.40
2018,04,24,07,58,13.50
2018,04,24,07,59,13.50
2018,04,24,08,00,13.60
2018,04,24,08,01,13.60
2018,04,24,08,02,13.60
2018,04,24,08,03,13.60
2018,04,24,08,04,13.60
2018,04,24,08,05,13.70
2018,04,24,08,06,13.70
2018,04,24,08,07,13.70
2018,04,24,08,08,13.80
2018,04,24,08,09,13.80
2018,04,24,08,10,13.80
2018,04,24,08,11,13.80
2018,04,24,08,12,13.80
2018,04,24,08,13,13.90
2018,04,24,08,14,13.90
2018,04,24,08,15,14.00
2018,04,24,08,16,14.00
2018,04,24,08,17,14.00
2018,04,24,08,18,14.10
2018,04,24,08,19,14.10
2018,04,24,08,20,14.20
2018,04,24,08,21,14.20
2018,04,24,08,22,14.20
2018,04,24,08,23,14.20
2018,04,24,08,24,14.20
2018,04,24,08,25,14.30
2018,04,24,08,26,14.30
2018,04,24,08,27,14.30
2018,04,24,08,28,14.30
2018,04,24,08,29,14.40
2018,04,24,08,30,14.40
2018,04,24,08,31,14.40
2018,04,24,08,32,14.40
2018,04,24,08,33,14.40
2018,04,24,08,34,14.40
2018,04,24,08,35,14.50
2018,04,24,08,36,14.50
2018,04,24,08,37,14.50
2018,04,24,08,38,14.50
2018,04,24,08,39,14.60
2018,04,24,08,40,14.60
2018,04,24,08,41,14.60
2018,04,24,08,42,14.60
2018,04,24,08,43,14.60
2018,04,24,08,44,14.70
2018,04,24,08,45,14.70
2018,04,24,08,46,14.70
2018,04,24,08,47,14.60
2018,04,24,08,48,14.60
2018,04,24,08,49,14.60
2018,04,24,08,50,14.60
2018,04,24,08,51,14.60
2018,04,24,08,52,14.60
2018,04,24,08,53,14.70
2018,04,24,08,54,14.70
2018,04,24,08,55,14.70
2018,04,24,08,56,14.80
2018,04,24,08,57,14.80
2018,04,24,08,58,14.90
2018,04,24,08,59,14.90
2018,04,24,09,00,14.90
2018,04,24,09,01,15.00
2018,04,24,09,02,15.00
2018,04,24,09,03,15.10
2018,04,24,09,04,15.10
2018,04,24,09,05,15.10
2018,04,24,09,06,15.10
2018,04,24,09,07,15.20
2018,04,24,09,08,15.20
2018,04,24,09,09,15.20
2018,04,24,09,10,15.20
2018,04,24,09,11,15.20
2018,04,24,09,12,15.10
2018,04,24,09,13,15.10
2018,04,24,09,14,15.10
2018,04,24,09,15,15.10
2018,04,24,09,16,15.10
2018,04,24,09,17,15.10
2018,04,24,09,18,15.10
2018,04,24,09,19,15.10
2018,04,24,09,20,15.10
2018,04,24,09,21,15.10
2018,04,24,09,22,15.10
2018,04,24,09,23,15.20
2018,04,24,09,24,15.20
2018,04,24,09,25,15.20
2018,04,24,09,26,15.20
2018,04,24,09,27,15.20
2018,04,24,09,28,15.20
2018,04,24,09,29,15.10
2018,04,24,09,30,15.10
2018,04,24,09,31,15.10
2018,04,24,09,32,15.10
2018,04,24,09,33,15.20
2018,04,24,09,34,15.20
2018,04,24,09,35,15.20
2018,04,24,09,36,15.20
2018,04,24,09,37,15.20
2018,04,24,09,38,15.30
2018,04,24,09,39,15.30
2018,04,24,09,40,15.30
2018,04,24,09,41,15.30
2018,04,24,09,42,15.40
2018,04,24,09,43,15.40
2018,04,24,09,44,15.50
2018,04,24,09,45,15.50
2018,04,24,09,46,15.50
2018,04,24,09,47,15.60
2018,04,24,09,48,15.60
2018,04,24,09,49,15.70
2018,04,24,09,50,15.70
2018,04,24,09,51,15.70
2018,04,24,09,52,15.80
2018,04,24,09,53,15.80
2018,04,24,09,54,15.80
2018,04,24,09,55,15.80
2018,04,24,09,56,15.80
2018,04,24,09,57,15.80
2018,04,24,09,58,15.80
2018,04,24,09,59,15.80
2018,04,24,10,00,15.80
2018,04,24,10,01,15.80
2018,04,24,10,02,15.80
2018,04,24,10,03,15.90
2018,04,24,10,04,15.90
2018,04,24,10,05,15.90
2018,04,24,10,06,16.00
2018,04,24,10,07,16.00
2018,04,24,10,08,16.10
2018,04,24,10,09,16.00
2018,04,24,10,10,16.00
2018,04,24,10,11,16.00
2018,04,24,10,12,16.10
2018,04,24,10,13,16.10
2018,04,24,10,14,16.20
2018,04,24,10,15,16.30
2018,04,24,10,16,16.30
2018,04,24,10,17,16.30
2018,04,24,10,18,16.30
2018,04,24,10,19,16.30
2018,04,24,10,20,16.30
2018,04,24,10,21,16.30
2018,04,24,10,22,16.30
2018,04,24,10,23,16.30
2018,04,24,10,24,16.30
2018,04,24,10,25,16.30
2018,04,24,10,26,16.30
2018,04,24,10,27,16.30
2018,04,24,10,28,16.40
2018,04,24,10,29,16.40
2018,04,24,10,30,16.50
2018,04,24,10,31,16.60
2018,04,24,10,32,16.70
2018,04,24,10,33,16.80
2018,04,24,10,34,16.80
2018,04,24,10,35,16.80
2018,04,24,10,36,16.80
2018,04,24,10,37,16.80
2018,04,24,10,38,16.80
2018,04,24,10,39,16.90
2018,04,24,10,40,16.90
2018,04,24,10,41,17.00
2018,04,24,10,42,17.00
2018,04,24,10,43,17.00
2018,04,24,10,44,17.00
2018,04,24,10,45,17.00
2018,04,24,10,46,17.10
2018,04,24,10,47,17.10
2018,04,24,10,48,17.10
2018,04,24,10,49,17.10
2018,04,24,10,50,17.10
2018,04,24,10,51,17.10
2018,04,24,10,52,17.20
2018,04,24,10,53,17.20
2018,04,24,10,54,17.30
2018,04,24,10,55,17.30
2018,04,24,10,56,17.30
2018,04,24,10,57,17.40
2018,04,24,10,58,17.40
2018,04,24,10,59,17.50
2018,04,24,11,00,17.50
2018,04,24,11,01,17.60
2018,04,24,11,02,17.60
2018,04,24,11,03,17.70
2018,04,24,11,04,17.70
2018,04,24,11,05,17.70
2018,04,24,11,06,17.70
2018,04,24,11,07,17.70
2018,04,24,11,08,17.70
2018,04,24,11,09,17.70
2018,04,24,11,10,17.70
2018,04,24,11,11,17.80
2018,04,24,11,12,17.70
2018,04,24,11,13,17.70
2018,04,24,11,14,17.70
2018,04,24,11,15,17.60
2018,04,24,11,16,17.60
2018,04,24,11,17,17.50
2018,04,24,11,18,17.50
2018,04,24,11,19,17.50
2018,04,24,11,20,17.50
2018,04,24,11,21,17.60
2018,04,24,11,22,17.70
2018,04,24,11,23,17.80
2018,04,24,11,24,17.80
2018,04,24,11,25,17.80
2018,04,24,11,26,17.80
2018,04,24,11,27,17.80
2018,04,24,11,28,17.80
2018,04,24,11,29,17.80
2018,04,24,11,30,17.70
2018,04,24,11,31,17.70
2018,04,24,11,32,17.70
2018,04,24,11,33,17.80
2018,04,24,11,34,17.80
2018,04,24,11,35,17.80
2018,04,24,11,36,17.80
2018,04,24,11,37,17.70
2018,04,24,11,38,17.70
2018,04,24,11,39,17.70
2018,04,24,11,40,17.70
2018,04,24,11,41,17.70
2018,04,24,11,42,17.80
2018,04,24,11,43,17.80
2018,04,24,11,44,17.90
2018,04,24,11,45,17.90
2018,04,24,11,46,17.90
2018,04,24,11,47,17.90
2018,04,24,11,48,17.90
2018,04,24,11,49,17.90
2018,04,24,11,50,17.90
2018,04,24,11,51,17.90
2018,04,24,11,52,17.90
2018,04,24,11,53,17.90
2018,04,24,11,54,18.00
2018,04,24,11,55,18.00
2018,04,24,11,56,18.10
2018,04,24,11,57,18.10
2018,04,24,11,58,18.20
2018,04,24,11,59,18.20
2018,04,24,12,00,18.30
2018,04,24,12,01,18.50
2018,04,24,12,02,18.60
2018,04,24,12,03,18.60
2018,04,24,12,04,18.60
2018,04,24,12,05,18.60
2018,04,24,12,06,18.50
2018,04,24,12,07,18.50
2018,04,24,12,08,18.40
2018,04,24,12,09,18.40
2018,04,24,12,10,18.30
2018,04,24,12,11,18.30
2018,04,24,12,12,18.20
2018,04,24,12,13,18.20
2018,04,24,12,14,18.20
2018,04,24,12,15,18.20
2018,04,24,12,16,18.20
2018,04,24,12,17,18.20
2018,04,24,12,18,18.30
2018,04,24,12,19,18.30
2018,04,24,12,20,18.40
2018,04,24,12,21,18.40
2018,04,24,12,22,18.50
2018,04,24,12,23,18.60
2018,04,24,12,24,18.70
2018,04,24,12,25,18.70
2018,04,24,12,26,18.70
2018,04,24,12,27,18.80
2018,04,24,12,28,18.90
2018,04,24,12,29,19.00
2018,04,24,12,30,19.00
2018,04,24,12,31,19.00
2018,04,24,12,32,19.00
2018,04,24,12,33,19.00
2018,04,24,12,34,19.00
2018,04,24,12,35,19.00
2018,04,24,12,36,19.00
2018,04,24,12,37,19.00
2018,04,24,12,38,18.90
2018,04,24,12,39,19.00
2018,04,24,12,40,19.00
2018,04,24,12,41,19.10
2018,04,24,12,42,19.10
2018,04,24,12,43,19.10
2018,04,24,12,44,19.10
2018,04,24,12,45,19.10
2018,04,24,12,46,19.10
2018,04,24,12,47,19.10
2018,04,24,12,48,19.10
2018,04,24,12,49,19.10
2018,04,24,12,50,19.10
2018,04,24,12,51,19.20
2018,04,24,12,52,19.20
2018,04,24,12,53,19.30
2018,04,24,12,54,19.30
2018,04,24,12,55,19.30
2018,04,24,12,56,19.30
2018,04,24,12,57,19.30
2018,04,24,12,58,19.40
2018,04,24,12,59,19.40
2018,04,24,13,00,19.40
2018,04,24,13,01,19.40
2018,04,24,13,02,19.40
2018,04,24,13,03,19.50
2018,04,24,13,04,19.50
2018,04,24,13,05,19.50
2018,04,24,13,06,19.50
2018,04,24,13,07,19.40
2018,04,24,13,08,19.40
2018,04,24,13,09,19.50
2018,04,24,13,10,19.60
2018,04,24,13,11,19.60
2018,04,24,13,12,19.60
2018,04,24,13,13,19.70
2018,04,24,13,14,19.70
2018,04,24,13,15,19.80
2018,04,24,13,16,19.80
2018,04,24,13,17,19.80
2018,04,24,13,18,19.90
2018,04,24,13,19,19.90
2018,04,24,13,20,19.90
2018,04,24,13,21,19.80
2018,04,24,13,22,19.70
2018,04,24,13,23,19.60
2018,04,24,13,24,19.60
2018,04,24,13,25,19.60
2018,04,24,13,26,19.60
2018,04,24,13,27,19.60
2018,04,24,13,28,19.60
2018,04,24,13,29,19.60
2018,04,24,13,30,19.70
2018,04,24,13,31,19.70
2018,04,24,13,32,19.70
2018,04,24,13,33,19.70
2018,04,24,13,34,19.70
2018,04,24,13,35,19.80
2018,04,24,13,36,19.80
2018,04,24,13,37,19.80
2018,04,24,13,38,19.80
2018,04,24,13,39,19.90
2018,04,24,13,40,19.90
2018,04,24,13,41,19.90
2018,04,24,13,42,20.00
2018,04,24,13,43,20.00
2018,04,24,13,44,20.00
2018,04,24,13,45,20.00
2018,04,24,13,46,20.00
2018,04,24,13,47,20.00
2018,04,24,13,48,20.00
2018,04,24,13,49,20.00
2018,04,24,13,50,20.10
2018,04,24,13,51,20.20
2018,04,24,13,52,20.30
2018,04,24,13,53,20.30
2018,04,24,13,54,20.30
2018,04,24,13,55,20.20
2018,04,24,13,56,20.20
2018,04,24,13,57,20.20
2018,04,24,13,58,20.20
2018,04,24,13,59,20.10
2018,04,24,14,00,20.20
2018,04,24,14,01,20.20
2018,04,24,14,02,20.20
2018,04,24,14,03,20.20
2018,04,24,14,04,20.30
2018,04,24,14,05,20.40
2018,04,24,14,06,20.40
2018,04,24,14,07,20.50
2018,04,24,14,08,20.50
2018,04,24,14,09,20.60
2018,04,24,14,10,20.60
2018,04,24,14,11,20.60
2018,04,24,14,12,20.50
2018,04,24,14,13,20.50
2018,04,24,14,14,20.50
2018,04,24,14,15,20.50
2018,04,24,14,16,20.50
2018,04,24,14,17,20.50
2018,04,24,14,18,20.50
2018,04,24,14,19,20.60
2018,04,24,14,20,20.60
2018,04,24,14,21,20.60
2018,04,24,14,22,20.70
2018,04,24,14,23,20.70
2018,04,24,14,24,20.70
2018,04,24,14,25,20.70
2018,04,24,14,26,20.70
2018,04,24,14,27,20.80
2018,04,24,14,28,20.90
2018,04,24,14,29,20.90
2018,04,24,14,30,20.90
2018,04,24,14,31,20.80
2018,04,24,14,32,20.70
2018,04,24,14,33,20.70
2018,04,24,14,34,20.70
2018,04,24,14,35,20.80
2018,04,24,14,36,20.80
2018,04,24,14,37,20.80
2018,04,24,14,38,20.80
2018,04,24,14,39,20.80
2018,04,24,14,40,20.90
2018,04,24,14,41,20.90
2018,04,24,14,42,21.00
2018,04,24,14,43,21.00
2018,04,24,14,44,21.00
2018,04,24,14,45,21.00
2018,04,24,14,46,21.00
2018,04,24,14,47,21.00
2018,04,24,14,48,21.00
2018,04,24,14,49,21.00
2018,04,24,14,50,21.00
2018,04,24,14,51,21.00
2018,04,24,14,52,21.10
2018,04,24,14,53,21.10
2018,04,24,14,54,21.00
2018,04,24,14,55,21.00
2018,04,24,14,56,21.00
2018,04,24,14,57,21.00
2018,04,24,14,58,21.10
2018,04,24,14,59,21.10
2018,04,24,15,00,21.10
2018,04,24,15,01,21.10
2018,04,24,15,02,21.10
2018,04,24,15,03,21.10
2018,04,24,15,04,21.10
2018,04,24,15,05,21.10
2018,04,24,15,06,21.10
2018,04,24,15,07,21.00
2018,04,24,15,08,21.00
2018,04,24,15,09,20.90
2018,04,24,15,10,20.90
2018,04,24,15,11,20.90
2018,04,24,15,12,20.90
2018,04,24,15,13,20.90
2018,04,24,15,14,21.00
2018,04,24,15,15,21.00
2018,04,24,15,16,21.00
2018,04,24,15,17,21.10
2018,04,24,15,18,21.10
2018,04,24,15,19,21.10
2018,04,24,15,20,21.00
2018,04,24,15,21,21.00
2018,04,24,15,22,20.90
2018,04,24,15,23,20.90
2018,04,24,15,24,20.90
2018,04,24,15,25,20.90
2018,04,24,15,26,21.00
2018,04,24,15,27,21.00
2018,04,24,15,28,21.10
2018,04,24,15,29,21.10
2018,04,24,15,30,21.20
2018,04,24,15,31,21.20
2018,04,24,15,32,21.30
2018,04,24,15,33,21.20
2018,04,24,15,34,21.20
2018,04,24,15,35,21.20
2018,04,24,15,36,21.10
2018,04,24,15,37,21.10
2018,04,24,15,38,21.20
2018,04,24,15,39,21.20
2018,04,24,15,40,21.20
2018,04,24,15,41,21.20
2018,04,24,15,42,21.20
2018,04,24,15,43,21.30
2018,04,24,15,44,21.30
2018,04,24,15,45,21.30
2018,04,24,15,46,21.40
2018,04,24,15,47,21.40
2018,04,24,15,48,21.30
2018,04,24,15,49,21.30
2018,04,24,15,50,21.30
2018,04,24,15,51,21.30
2018,04,24,15,52,21.30
2018,04,24,15,53,21.30
2018,04,24,15,54,21.30
2018,04,24,15,55,21.30
2018,04,24,15,56,21.40
2018,04,24,15,57,21.40
2018,04,24,15,58,21.40
2018,04,24,15,59,21.40
2018,04,24,16,00,21.40
2018,04,24,16,01,21.40
2018,04,24,16,02,21.40
2018,04,24,16,03,21.40
2018,04,24,16,04,21.40
2018,04,24,16,05,21.40
2018,04,24,16,06,21.40
2018,04,24,16,07,21.40
2018,04,24,16,08,21.30
2018,04,24,16,09,21.20
2018,04,24,16,10,21.20
2018,04,24,16,11,21.20
2018,04,24,16,12,21.20
2018,04,24,16,13,21.20
2018,04,24,16,14,21.20
2018,04,24,16,15,21.20
2018,04,24,16,16,21.20
2018,04,24,16,17,21.20
2018,04,24,16,18,21.20
2018,04,24,16,19,21.20
2018,04,24,16,20,21.30
2018,04,24,16,21,21.30
2018,04,24,16,22,21.30
2018,04,24,16,23,21.30
2018,04,24,16,24,21.30
2018,04,24,16,25,21.30
2018,04,24,16,26,21.40
2018,04,24,16,27,21.40
2018,04,24,16,28,21.40
2018,04,24,16,29,21.40
2018,04,24,16,30,21.40
2018,04,24,16,31,21.40
2018,04,24,16,32,21.50
2018,04,24,16,33,21.60
2018,04,24,16,34,21.50
2018,04,24,16,35,21.50
2018,04,24,16,36,21.50
2018,04,24,16,37,21.40
2018,04,24,16,38,21.40
2018,04,24,16,39,21.40
2018,04,24,16,40,21.40
2018,04,24,16,41,21.40
2018,04,24,16,42,21.40
2018,04,24,16,43,21.40
2018,04,24,16,44,21.40
2018,04,24,16,45,21.30
2018,04,24,16,46,21.20
2018,04,24,16,47,21.20
2018,04,24,16,48,21.10
2018,04,24,16,49,21.00
2018,04,24,16,50,21.00
2018,04,24,16,51,20.90
2018,04,24,16,52,21.00
2018,04,24,16,53,21.00
2018,04,24,16,54,21.00
2018,04,24,16,55,21.00
2018,04,24,16,56,21.00
2018,04,24,16,57,20.90
2018,04,24,16,58,20.90
2018,04,24,16,59,20.90
2018,04,24,17,00,20.80
2018,04,24,17,01,20.90
2018,04,24,17,02,20.90
2018,04,24,17,03,20.90
2018,04,24,17,04,20.90
2018,04,24,17,05,21.00
2018,04,24,17,06,21.00
2018,04,24,17,07,21.00
2018,04,24,17,08,21.00
2018,04,24,17,09,21.00
2018,04,24,17,10,20.90
2018,04,24,17,11,20.90
2018,04,24,17,12,20.90
2018,04,24,17,13,21.00
2018,04,24,17,14,21.00
2018,04,24,17,15,21.00
2018,04,24,17,16,21.00
2018,04,24,17,17,20.90
2018,04,24,17,18,20.90
2018,04,24,17,19,20.90
2018,04,24,17,20,20.90
2018,04,24,17,21,20.90
2018,04,24,17,22,20.90
2018,04,24,17,23,20.90
2018,04,24,17,24,20.90
2018,04,24,17,25,20.90
2018,04,24,17,26,20.90
2018,04,24,17,27,20.90
2018,04,24,17,28,20.90